Weather History for KILN - August, 2013

Change the Weather History Date:

Saturday, August 3, 2013

  Actual Average (KDAY) Record (KDAY)
Temperature  
Mean Temperature 70 °F 74 °F  
Max Temperature 79 °F 83 °F 100 °F (1964)
Min Temperature 62 °F 64 °F 40 °F (1965)
Degree Days  
Heating Degree Days 0 0  
Month to date heating degree days 0  
Since 1 June heating degree days 22  
Since 1 July heating degree days 0  
Cooling Degree Days 6 9  
Month to date cooling degree days 27  
Year to date cooling degree days 566  
Since 1 June cooling degree days 496  
Growing Degree Days 20 (Base 50)    
Moisture  
Dew Point 64 °F    
Average Humidity 81    
Maximum Humidity 96    
Minimum Humidity 54    
Precipitation  
Precipitation 0.07 in 0.10 in 2.13 in (1978)
Month to date precipitation 0.30  
Year to date precipitation 25.62  
Snow  
Snow 0.00 in 0.00 in 0.00 in ()
Month to date snowfall 0.0  
Since 1 June snowfall 0.0  
Since 1 July snowfall 0.0  
Snow Depth -    
Sea Level Pressure  
Sea Level Pressure 29.99 in    
Wind  
Wind Speed 4 mph (West)    
Max Wind Speed 10 mph    
Max Gust Speed -    
Visibility 9 miles    
Events Rain    
T = Trace of Precipitation, MM = Missing Value Source: NWS Daily Summary

Daily Weather History Graph

Daily Weather History Graph

Search for Another Location

Airport or City:

Trip Planner

Search our weather history database for the weather conditions in past years. The results will help you decide how hot, cold, wet, or windy it might be!

Date:

Astronomy

Aug. 03, 2013 Rise Set
Actual Time 6:37 AM EDT 8:45 PM EDT
Civil Twilight 6:07 AM EDT 9:14 PM EDT
Nautical Twilight 5:30 AM EDT 9:51 PM EDT
Astronomical Twilight 4:51 AM EDT 10:30 PM EDT
Moon 3:45 AM EDT (8/3) 6:26 PM EDT (8/3)
Length of Visible Light 15h 07m
Length of Day
14h 08m
Waning Crescent, 9% of the Moon is Illuminated
Aug 3
Waning Crescent
Aug 6
New
Aug 14
First Quarter
Aug 20
Full
Aug 28
Last Quarter

Hourly Weather History & Observations

Time (EDT) Temp. Dew Point Humidity Pressure Visibility Wind Dir Wind Speed Gust Speed Precip Events Conditions
12:54 AM 72.0 °F 63.0 °F 73% 29.97 in 10.0 mi WSW 5.8 mph - N/A   Overcast
1:54 AM 69.1 °F 64.0 °F 84% 29.97 in 10.0 mi SSW 3.5 mph - N/A   Overcast
2:54 AM 69.1 °F 64.9 °F 87% 29.97 in 10.0 mi Calm Calm - 0.00 in Rain Light Rain
3:54 AM 68.0 °F 64.9 °F 90% 29.96 in 10.0 mi Calm Calm - 0.00 in   Overcast
4:54 AM 68.0 °F 64.9 °F 90% 29.96 in 10.0 mi South 3.5 mph - 0.00 in   Overcast
5:54 AM 66.9 °F 64.0 °F 90% 29.96 in 8.0 mi NW 3.5 mph - 0.05 in Rain Light Rain
6:54 AM 66.0 °F 64.9 °F 96% 29.97 in 5.0 mi SSW 3.5 mph - 0.02 in Rain Light Rain
7:54 AM 66.9 °F 64.9 °F 93% 29.97 in 6.0 mi SSW 4.6 mph - 0.00 in Rain Light Rain
8:54 AM 68.0 °F 64.9 °F 90% 29.98 in 8.0 mi SW 5.8 mph - 0.00 in   Overcast
9:54 AM 69.1 °F 64.9 °F 87% 29.98 in 9.0 mi West 4.6 mph - N/A   Overcast
10:54 AM 69.1 °F 66.0 °F 90% 29.99 in 7.0 mi WNW 4.6 mph - 0.00 in   Overcast
11:54 AM 70.0 °F 66.0 °F 87% 29.99 in 10.0 mi West 3.5 mph - N/A   Overcast
12:54 PM 71.1 °F 66.0 °F 84% 30.00 in 8.0 mi WSW 5.8 mph - N/A   Overcast
1:54 PM 70.0 °F 66.9 °F 90% 30.01 in 7.0 mi West 9.2 mph - N/A   Overcast
2:28 PM 73.4 °F 66.2 °F 78% 30.01 in 8.0 mi WSW 9.2 mph - N/A   Overcast
2:54 PM 75.9 °F 68.0 °F 76% 29.98 in 9.0 mi WSW 8.1 mph - N/A   Mostly Cloudy
3:54 PM 77.0 °F 66.9 °F 71% 29.98 in 10.0 mi West 5.8 mph - N/A   Overcast
4:54 PM 77.0 °F 64.9 °F 66% 29.98 in 10.0 mi North 5.8 mph - N/A   Mostly Cloudy
5:54 PM 77.0 °F 64.9 °F 66% 29.98 in 10.0 mi NNW 6.9 mph - N/A   Mostly Cloudy
6:54 PM 77.0 °F 59.0 °F 54% 29.98 in 10.0 mi North 10.4 mph - N/A   Scattered Clouds
7:54 PM 75.9 °F 61.0 °F 60% 29.98 in 10.0 mi North 5.8 mph - N/A   Clear
8:54 PM 71.1 °F 60.1 °F 68% 29.99 in 10.0 mi North 5.8 mph - N/A   Clear
9:54 PM 66.0 °F 60.1 °F 81% 30.01 in 10.0 mi NNE 3.5 mph - N/A   Clear
10:54 PM 64.9 °F 61.0 °F 87% 30.03 in 10.0 mi Calm Calm - N/A   Clear
11:54 PM 62.1 °F 60.1 °F 93% 30.03 in 10.0 mi Calm Calm - N/A   Clear